RH
35 34 33 31 33 34 29 24 24 27 30 37 44 51 48 45 43 46 44 46 42 39 37 42 41 39 37 35 34 33 33 32 27 34 40 36 31 27 23 17 14 14 14 13 16 17 17 21 22
34 36 35 34 37 36 32 23 26 30 31 37 43 52 51 50 50 47 45 44 43 41 38 37 40 39 38 37 37 35 33 30 27 33 37 35 39 32 23 18 18 15 14 13 13 14 15 16 17
33 36 37 39 41 38 34 26 27 32 33 38 40 45 50 50 50 50 49 45 42 40 36 36 41 40 38 38 39 37 33 30 28 30 35 37 42 34 32 26 21 17 13 12 12 13 14 14 15
34 35 37 41 39 36 32 30 29 32 32 37 41 43 44 48 51 53 50 49 46 43 38 37 39 41 40 39 39 38 35 32 28 29 34 38 42 43 42 39 32 26 19 17 16 15 15 16 17
34 34 39 40 40 38 35 34 32 32 34 35 39 43 44 43 46 47 45 45 43 41 40 38 39 41 42 43 43 42 38 34 30 30 32 40 41 40 39 40 35 32 29 29 29 29 27 25 23
36 34 42 39 33 37 39 38 35 32 34 34 38 40 41 44 43 43 41 43 43 39 38 39 39 42 43 45 46 47 44 37 32 31 33 36 40 40 37 35 32 29 29 31 33 34 36 38 39
38 39 40 35 32 33 37 37 39 37 37 36 38 39 38 41 45 43 44 44 44 43 44 42 41 41 44 45 48 50 48 42 36 34 34 34 35 38 40 33 30 27 28 30 32 33 34 36 38
38 43 42 38 34 32 32 36 40 40 38 37 39 40 38 40 41 42 45 47 46 46 47 45 46 45 43 44 48 52 51 46 41 37 34 33 34 35 35 32 33 36 38 38 40 38 38 39 39
41 48 45 38 36 29 31 36 39 41 43 42 40 40 39 39 39 42 44 45 47 49 49 50 50 50 45 44 50 54 53 49 47 42 36 34 34 35 35 36 39 40 41 41 43 44 44 43 42
43 49 40 35 32 31 32 36 40 42 46 46 44 42 41 40 39 36 40 44 46 48 49 50 51 50 45 47 48 56 56 51 48 44 39 36 37 37 39 41 41 42 43 46 46 47 46 43 43
44 43 38 36 36 36 35 35 39 40 42 44 49 47 45 44 41 38 34 40 46 49 49 50 51 52 49 50 50 54 60 55 50 47 45 42 41 41 43 45 44 45 46 48 48 46 46 44 43
42 37 38 38 37 38 38 38 40 39 37 42 45 49 47 45 43 40 36 33 37 41 43 46 48 51 53 53 58 59 63 60 54 50 51 48 48 48 48 47 45 51 50 49 46 47 45 45 42
49 43 40 37 37 36 38 39 40 38 38 39 42 46 49 47 44 43 41 37 34 33 37 40 43 47 50 52 58 65 64 65 60 56 55 53 53 53 52 49 52 51 50 48 49 49 46 40 35
50 47 45 43 39 38 39 36 39 30 36 37 37 41 46 49 47 44 41 39 39 38 35 35 40 44 47 50 56 66 67 69 67 62 62 59 58 57 54 54 53 52 50 49 50 45 36 34 34
53 53 50 45 39 40 40 37 35 30 30 32 33 36 40 43 48 44 44 39 37 35 38 35 34 37 44 48 55 63 71 75 72 65 62 60 58 58 56 56 55 55 52 50 38 35 36 34 31
59 59 60 49 44 41 41 35 32 34 33 29 30 31 33 35 40 46 44 41 39 36 34 39 37 34 38 47 54 59 70 75 73 65 63 62 61 59 56 56 57 55 44 37 36 36 33 29 23
55 60 61 60 54 52 51 46 38 37 35 34 33 31 31 30 33 39 43 42 39 36 35 36 39 32 34 46 52 59 67 77 74 70 66 66 63 59 57 58 53 37 35 38 35 34 29 22 18
56 61 59 59 58 57 54 53 45 42 40 37 35 31 32 31 31 36 40 43 41 37 37 35 38 38 34 41 49 59 68 74 74 71 68 64 62 59 59 51 36 33 36 35 34 29 21 17 16
60 63 66 62 59 61 57 50 44 41 39 38 34 33 32 30 30 33 37 41 43 39 36 35 36 40 37 39 48 58 66 72 72 73 68 63 64 60 47 37 35 37 39 35 28 20 17 17 18
60 62 63 59 58 56 51 44 43 39 36 35 35 33 32 31 30 31 36 39 43 42 38 36 36 42 46 42 47 56 60 67 72 70 67 65 61 46 41 40 42 42 38 32 24 19 19 21 21
63 66 66 63 58 55 55 37 33 29 27 27 27 29 29 30 31 32 37 38 41 44 42 38 38 39 46 50 49 58 58 64 69 67 66 63 50 43 42 44 45 43 38 31 25 23 23 23 23
68 63 67 69 74 71 58 51 34 32 30 26 24 25 27 28 32 33 39 40 41 42 43 42 40 39 44 50 53 55 56 60 58 61 62 54 45 45 46 46 45 44 40 33 29 27 26 25 26
71 71 76 78 82 81 70 78 43 37 35 31 28 27 29 28 31 34 37 39 41 42 44 45 41 40 39 45 52 59 60 58 56 57 55 46 46 47 48 49 52 49 43 37 34 30 29 28 29
81 84 87 90 90 87 66 77 39 36 31 29 28 25 26 31 32 35 37 39 43 44 45 48 45 44 47 51 56 59 57 55 55 56 47 46 48 51 53 55 55 52 47 44 38 33 32 31 30
82 91 91 94 93 76 66 73 44 36 34 33 31 28 25 30 34 36 38 38 43 46 49 51 47 46 52 56 61 55 55 56 57 52 46 48 51 53 56 57 55 50 51 51 42 36 32 31 33
81 85 95 95 90 81 68 67 49 38 35 34 30 27 26 31 36 39 41 43 46 51 54 54 51 50 57 58 59 58 56 56 51 47 50 52 54 57 59 59 55 52 52 56 49 37 31 32 31
84 88 73 93 91 97 74 56 40 40 36 37 32 28 27 31 38 42 44 46 51 57 57 58 55 54 60 60 56 54 54 47 45 47 50 54 57 59 61 59 57 58 57 57 46 37 33 29 30
74 85 96 97 97 93 72 58 51 44 51 48 41 37 28 32 36 41 44 45 57 65 62 64 63 59 62 61 54 50 47 46 48 49 51 55 59 63 62 60 64 66 62 54 41 32 31 35 37
83 79 81 84 94 92 80 51 38 47 54 50 44 38 35 36 40 43 46 46 58 69 67 68 70 68 64 60 54 51 51 51 51 52 56 60 64 65 63 68 72 69 61 51 42 38 38 38 37
83 83 83 86 74 74 73 49 45 53 50 56 57 49 39 43 44 51 51 55 64 68 70 71 73 72 68 60 56 55 54 55 57 59 62 64 65 65 70 74 73 66 61 51 41 40 39 36 36